SHT21B EGJB-EGLL

Flight info

Callsign SHT21B
Flight time 0h 34m
Altitude 19000
Route ORIST1F ORIST L982 ROXOG ROXOG1H
Aircraft A319/M-SDE3FGIJ1KRWXY/LB1

Departure

Time 2026-04-30 12:03
Airport Guernsey Airport (EGJB)

Arrival

Time 2026-04-30 12:37
Airport London Heathrow Airport (EGLL)
Time Latitude Longitude Altitude Speed Heading
2026-04-30 11:38 49.43254 -2.59620 324 ft 0 kts 178°
2026-04-30 11:56 49.43255 -2.59621 328 ft 2 kts 178°
2026-04-30 11:56 49.43280 -2.59623 324 ft 4 kts 178°
2026-04-30 11:56 49.43307 -2.59623 328 ft 4 kts 183°
2026-04-30 11:56 49.43334 -2.59618 328 ft 4 kts 194°
2026-04-30 11:57 49.43357 -2.59603 325 ft 4 kts 232°
2026-04-30 11:57 49.43363 -2.59583 327 ft 1 kts 267°
2026-04-30 11:57 49.43363 -2.59580 327 ft 0 kts 267°
2026-04-30 11:59 49.43362 -2.59603 325 ft 5 kts 267°
2026-04-30 12:00 49.43360 -2.59685 326 ft 10 kts 267°
2026-04-30 12:00 49.43346 -2.59810 327 ft 14 kts 267°
2026-04-30 12:00 49.43340 -2.60003 314 ft 23 kts 268°
2026-04-30 12:00 49.43333 -2.60269 296 ft 23 kts 268°
2026-04-30 12:01 49.43325 -2.60535 297 ft 26 kts 268°
2026-04-30 12:01 49.43350 -2.60801 300 ft 24 kts 280°
2026-04-30 12:01 49.43363 -2.61029 311 ft 20 kts 266°
2026-04-30 12:01 49.43360 -2.61230 313 ft 16 kts 276°
2026-04-30 12:02 49.43422 -2.61349 316 ft 12 kts 332°
2026-04-30 12:02 49.43467 -2.61320 315 ft 5 kts 82°
2026-04-30 12:02 49.43467 -2.61308 315 ft 0 kts 90°
2026-04-30 12:03 49.43477 -2.60903 311 ft 81 kts 87°
2026-04-30 12:03 49.43545 -2.58244 1148 ft 132 kts 90°
2026-04-30 12:03 49.43590 -2.56833 1719 ft 141 kts 92°
2026-04-30 12:04 49.43634 -2.55192 2033 ft 166 kts 93°
2026-04-30 12:04 49.43673 -2.53323 2456 ft 185 kts 91°
2026-04-30 12:04 49.43744 -2.51221 2781 ft 210 kts 87°
2026-04-30 12:04 49.44372 -2.49133 3469 ft 229 kts 47°
2026-04-30 12:05 49.45782 -2.47901 4326 ft 238 kts 23°
2026-04-30 12:05 49.47382 -2.47209 5232 ft 241 kts 15°
2026-04-30 12:05 49.49069 -2.46666 5858 ft 259 kts 14°
2026-04-30 12:05 49.50872 -2.45890 6316 ft 279 kts 30°
2026-04-30 12:06 49.52443 -2.44160 7026 ft 285 kts 43°
2026-04-30 12:06 49.53996 -2.42219 7933 ft 289 kts 43°
2026-04-30 12:06 49.55570 -2.40255 8836 ft 293 kts 43°
2026-04-30 12:06 49.57166 -2.38269 9774 ft 297 kts 43°
2026-04-30 12:07 49.58792 -2.36247 10415 ft 310 kts 43°
2026-04-30 12:07 49.60531 -2.34074 10695 ft 333 kts 43°
2026-04-30 12:07 49.62373 -2.31775 11182 ft 346 kts 43°
2026-04-30 12:07 49.64259 -2.29430 11902 ft 351 kts 43°
2026-04-30 12:08 49.66168 -2.27058 12654 ft 354 kts 43°
2026-04-30 12:08 49.68100 -2.24659 13388 ft 358 kts 43°
2026-04-30 12:08 49.70021 -2.22271 14104 ft 361 kts 43°
2026-04-30 12:08 49.71983 -2.19823 14769 ft 364 kts 43°
2026-04-30 12:09 49.73962 -2.17344 15403 ft 368 kts 44°
2026-04-30 12:09 49.75961 -2.14837 16040 ft 372 kts 44°
2026-04-30 12:09 49.77979 -2.12306 16663 ft 376 kts 44°
2026-04-30 12:09 49.80016 -2.09744 17296 ft 379 kts 44°
2026-04-30 12:10 49.82075 -2.07153 17940 ft 383 kts 44°
2026-04-30 12:10 49.84153 -2.04539 18542 ft 387 kts 45°
2026-04-30 12:10 49.86251 -2.01900 18962 ft 390 kts 44°
2026-04-30 12:10 49.88327 -1.99286 19093 ft 391 kts 44°
2026-04-30 12:11 49.90445 -1.96615 19124 ft 394 kts 44°
2026-04-30 12:11 49.92572 -1.93930 19136 ft 394 kts 44°
2026-04-30 12:11 49.94698 -1.91238 19136 ft 394 kts 45°
2026-04-30 12:11 49.96820 -1.88542 19136 ft 394 kts 45°
2026-04-30 12:12 49.98945 -1.85846 19141 ft 395 kts 44°
2026-04-30 12:12 50.01262 -1.83486 19138 ft 402 kts 33°
2026-04-30 12:12 50.03766 -1.81522 19129 ft 403 kts 32°
2026-04-30 12:12 50.06266 -1.79559 19144 ft 402 kts 32°
2026-04-30 12:13 50.08728 -1.77617 19141 ft 402 kts 32°
2026-04-30 12:13 50.11215 -1.75626 19142 ft 401 kts 34°
2026-04-30 12:13 50.13511 -1.73239 19141 ft 394 kts 44°
2026-04-30 12:13 50.15611 -1.70512 19147 ft 393 kts 45°
2026-04-30 12:14 50.17712 -1.67788 19150 ft 393 kts 45°
2026-04-30 12:14 50.19817 -1.65064 19138 ft 393 kts 45°
2026-04-30 12:14 50.21922 -1.62340 19141 ft 393 kts 45°
2026-04-30 12:14 50.24026 -1.59614 19147 ft 393 kts 45°
2026-04-30 12:15 50.26222 -1.57119 19146 ft 399 kts 36°
2026-04-30 12:15 50.28738 -1.55225 19146 ft 406 kts 25°
2026-04-30 12:15 50.31440 -1.53880 19147 ft 408 kts 22°
2026-04-30 12:15 50.34147 -1.52566 19157 ft 408 kts 22°
2026-04-30 12:16 50.36856 -1.51243 19157 ft 408 kts 22°
2026-04-30 12:16 50.39565 -1.49911 19158 ft 408 kts 22°
2026-04-30 12:16 50.42269 -1.48575 19146 ft 408 kts 22°
2026-04-30 12:16 50.44976 -1.47239 19158 ft 408 kts 22°
2026-04-30 12:17 50.50352 -1.44588 19165 ft 408 kts 22°
2026-04-30 12:17 50.53050 -1.43225 19165 ft 406 kts 25°
2026-04-30 12:17 50.55586 -1.41361 19167 ft 401 kts 34°
2026-04-30 12:18 50.58032 -1.39246 19152 ft 401 kts 34°
2026-04-30 12:18 50.60473 -1.37137 19158 ft 401 kts 33°
2026-04-30 12:18 50.62922 -1.35030 19161 ft 401 kts 33°
2026-04-30 12:18 50.65344 -1.32955 19153 ft 401 kts 33°
2026-04-30 12:19 50.67797 -1.30855 19158 ft 402 kts 33°
2026-04-30 12:19 50.70253 -1.28748 19172 ft 402 kts 33°
2026-04-30 12:19 50.72709 -1.26629 19172 ft 402 kts 33°
2026-04-30 12:19 50.75158 -1.24513 19165 ft 401 kts 33°
2026-04-30 12:20 50.77588 -1.22347 18534 ft 402 kts 35°
2026-04-30 12:20 50.79961 -1.20019 17939 ft 399 kts 37°
2026-04-30 12:20 50.82261 -1.17625 17425 ft 393 kts 38°
2026-04-30 12:20 50.84508 -1.15226 16903 ft 387 kts 38°
2026-04-30 12:21 50.86726 -1.12852 16401 ft 382 kts 38°
2026-04-30 12:21 50.88887 -1.10561 15905 ft 377 kts 38°
2026-04-30 12:21 50.91061 -1.08280 15405 ft 373 kts 37°
2026-04-30 12:21 50.93216 -1.06036 14910 ft 368 kts 37°
2026-04-30 12:22 50.95346 -1.03825 14415 ft 364 kts 37°
2026-04-30 12:22 50.97456 -1.01639 13921 ft 360 kts 37°
2026-04-30 12:22 50.99534 -0.99475 13399 ft 355 kts 39°
2026-04-30 12:22 51.01374 -0.96965 12951 ft 344 kts 51°
2026-04-30 12:23 51.02949 -0.94165 12547 ft 337 kts 52°
2026-04-30 12:23 51.04481 -0.91440 12175 ft 333 kts 52°
2026-04-30 12:23 51.06018 -0.88704 11782 ft 331 kts 52°
2026-04-30 12:23 51.07545 -0.85980 11392 ft 329 kts 52°
2026-04-30 12:24 51.09062 -0.83271 10998 ft 327 kts 52°
2026-04-30 12:24 51.10572 -0.80576 10618 ft 325 kts 52°
2026-04-30 12:24 51.12050 -0.77942 10485 ft 312 kts 52°
2026-04-30 12:24 51.13466 -0.75416 10358 ft 300 kts 53°
2026-04-30 12:25 51.14838 -0.72965 10155 ft 293 kts 53°
2026-04-30 12:25 51.16179 -0.70564 10007 ft 289 kts 53°
2026-04-30 12:25 51.17497 -0.68199 9733 ft 288 kts 53°
2026-04-30 12:25 51.18825 -0.65815 9379 ft 287 kts 53°
2026-04-30 12:26 51.20148 -0.63434 9027 ft 286 kts 53°
2026-04-30 12:26 51.21468 -0.61059 8671 ft 285 kts 53°
2026-04-30 12:26 51.22777 -0.58696 8321 ft 284 kts 53°
2026-04-30 12:26 51.24083 -0.56338 7950 ft 283 kts 53°
2026-04-30 12:27 51.25382 -0.53994 7604 ft 281 kts 53°
2026-04-30 12:27 51.26717 -0.51729 7324 ft 281 kts 43°
2026-04-30 12:27 51.28471 -0.50399 7205 ft 282 kts 14°
2026-04-30 12:27 51.30408 -0.50496 7081 ft 280 kts 345°
2026-04-30 12:28 51.32057 -0.51955 6960 ft 273 kts 316°
2026-04-30 12:28 51.33378 -0.54138 6789 ft 268 kts 311°
2026-04-30 12:28 51.34624 -0.56277 6540 ft 266 kts 311°
2026-04-30 12:28 51.35886 -0.58444 6245 ft 265 kts 311°
2026-04-30 12:29 51.37140 -0.60613 5938 ft 265 kts 311°
2026-04-30 12:29 51.38386 -0.62787 5624 ft 265 kts 311°
2026-04-30 12:29 51.39622 -0.64976 5381 ft 263 kts 311°
2026-04-30 12:29 51.40821 -0.67119 5256 ft 254 kts 311°
2026-04-30 12:30 51.41976 -0.69188 5127 ft 245 kts 311°
2026-04-30 12:30 51.43078 -0.71202 4993 ft 235 kts 306°
2026-04-30 12:30 51.43768 -0.73481 4808 ft 224 kts 284°
2026-04-30 12:30 51.44144 -0.75838 4567 ft 220 kts 277°
2026-04-30 12:31 51.44453 -0.78224 4299 ft 219 kts 283°
2026-04-30 12:31 51.45275 -0.80248 4054 ft 218 kts 324°
2026-04-30 12:31 51.46620 -0.81119 3841 ft 205 kts
2026-04-30 12:31 51.47917 -0.80539 3710 ft 188 kts 49°
2026-04-30 12:32 51.48452 -0.78841 3585 ft 168 kts 98°
2026-04-30 12:32 51.47989 -0.77202 3499 ft 164 kts 128°
2026-04-30 12:32 51.47514 -0.75554 3347 ft 169 kts 94°
2026-04-30 12:32 51.47662 -0.73669 3143 ft 169 kts 90°
2026-04-30 12:33 51.47654 -0.71820 2939 ft 165 kts 93°
2026-04-30 12:33 51.47650 -0.70009 2732 ft 165 kts 92°
2026-04-30 12:33 51.47655 -0.68178 2526 ft 163 kts 92°
2026-04-30 12:33 51.47663 -0.66400 2291 ft 156 kts 92°
2026-04-30 12:34 51.47672 -0.64689 2084 ft 152 kts 92°
2026-04-30 12:34 51.47681 -0.63030 1884 ft 146 kts 92°
2026-04-30 12:34 51.47689 -0.61423 1689 ft 144 kts 91°
2026-04-30 12:34 51.47696 -0.59854 1511 ft 134 kts 92°
2026-04-30 12:35 51.47704 -0.58424 1332 ft 125 kts 92°
2026-04-30 12:35 51.47712 -0.57079 1129 ft 120 kts 94°
2026-04-30 12:35 51.47714 -0.55752 966 ft 120 kts 91°
2026-04-30 12:35 51.47723 -0.54417 846 ft 119 kts 91°
2026-04-30 12:36 51.47727 -0.53082 724 ft 121 kts 89°
2026-04-30 12:36 51.47736 -0.51749 536 ft 120 kts 89°
2026-04-30 12:36 51.47744 -0.50405 376 ft 121 kts 89°
2026-04-30 12:36 51.47748 -0.49082 208 ft 119 kts 89°
2026-04-30 12:37 51.47752 -0.47776 95 ft 110 kts 89°
2026-04-30 12:37 51.47757 -0.46740 91 ft 71 kts 90°
2026-04-30 12:37 51.47757 -0.46274 89 ft 19 kts 90°
2026-04-30 12:37 51.47702 -0.46142 88 ft 16 kts 147°
2026-04-30 12:38 51.47655 -0.46092 89 ft 7 kts 145°
2026-04-30 12:38 51.47607 -0.46103 88 ft 9 kts 228°
2026-04-30 12:38 51.47594 -0.46204 86 ft 11 kts 271°
2026-04-30 12:38 51.47595 -0.46352 86 ft 14 kts 270°
2026-04-30 12:39 51.47593 -0.46521 86 ft 16 kts 269°
2026-04-30 12:39 51.47592 -0.46708 86 ft 18 kts 269°
2026-04-30 12:39 51.47582 -0.46911 88 ft 19 kts 270°
2026-04-30 12:39 51.47583 -0.47127 86 ft 20 kts 270°
2026-04-30 12:40 51.47582 -0.47361 86 ft 21 kts 269°
2026-04-30 12:40 51.47581 -0.47609 88 ft 23 kts 270°
2026-04-30 12:40 51.47580 -0.47877 89 ft 25 kts 270°
2026-04-30 12:40 51.47580 -0.48148 89 ft 23 kts 270°
2026-04-30 12:41 51.47578 -0.48390 86 ft 18 kts 269°
2026-04-30 12:41 51.47516 -0.48478 86 ft 12 kts 193°
2026-04-30 12:41 51.47487 -0.48591 87 ft 11 kts 270°
2026-04-30 12:41 51.47488 -0.48712 87 ft 10 kts 270°
2026-04-30 12:42 51.47445 -0.48758 86 ft 7 kts 179°
2026-04-30 12:42 51.47412 -0.48757 86 ft 3 kts 180°
2026-04-30 12:42 51.47398 -0.48757 86 ft 0 kts 180°